STARLINK-34241, 64229

Orbit data source: Space-Track

STARLINK-34241, 64229 is a payload satellite owned by SpaceX/Seattle (US) in LEO that was launched on Sat, 31 May 2025 UTC via an FALCON 9 launch vehicle from the Air Force Western Test Range (AFWTR). Payload-class satellites include a variety of spacecraft equipped with specific instruments for various scientific and technological missions. These include communications satellites like Starlink; space stations such as the ISS; scientific satellites like the Hubble; Earth observation satellites from companies like Planet Labs, Umbra, and HawkEye 360; GPS; miniature CubeSats for education and research; and military/defense satellites.

Loading next visibility...
Identifier
64229, 2025-117AC
Orbit
LEO
Country
Flag of USUS
Related business
Manufacturer
SpaceX/Seattle
Mission
Operational Commercial Communications
Bus & Motor
STARLINK V2MO, Unknown motor
Mass
575 kg wet, ~530 kg dry
Launch date (UTC)
2025-05-31 (1 year ago)
Launch vehicle
FALCON 9
Launch site
Air Force Western Test Range (AFWTR)
Object type
Payload
Rocket body
Debris
Shape & HBR
Box + 2 Pan, 17.7 m
Radar Cross Section
36.964 m², Large (>1 m²)

Expand to show TLE details & history
Last TLE update: 1 day ago

TLE from 1 day ago
0 STARLINK-34241
1 64229U 25117AC  26170.63997485  .00028873  00000-0  86212-3 0  9996
2 64229  53.1602 285.4878 0001180  84.4926 275.6211 15.34409085 60174
Epoch: 2026-06-19T15:21Z
TLE epoch observation values (Epoch: 2026-06-19T15:21:33.827Z)
Latitude
-0.00001°
Longitude
147.23079°
Altitude
463.499 km
Speed
7.636 km/s
True Right ascension
19h 01m 57s
True Declination
0° 00' 00"
Sunlit
Object was in full shadow at epoch
Visualization orbit readout
Latitude
Unknown
Longitude
Unknown
Altitude
Unknown
Speed
Unknown
Apparent Right ascension
Unknown
Apparent Declination
Unknown
Sunlit
N/A
Visualization observer readout
Local Sidereal Time
07:20:17
Azimuth
Unknown
Elevation
Unknown
Doppler factor
Unknown
Orbital elements
Apogee altitude
463.74 km
Perigee altitude
462.126 km
Semi-major axis
6,841.07 km
Eccentricity
0.00012
Inclination
53.1602°
RAAN
285.4878°
Arg. of periapsis
84.4926°
True anomaly
275.60764°
Mean anomaly
275.6211°
Eccentric anomaly
275.61437°
Mean motion
3.83581 °/min
Orbital period
93.85 mins
BSTAR
0.00086212
Loading maneuver chart data...
Computing Atmospheric mass density...
Loading historical data...
Loading historical data...
Loading historical data...
Loading historical data...
Loading historical data...
Loading historical data...
Loading historical data...

Documentation

Showing up to 5 results
|